CW4114 Weather Reports


time (UTC)temp
C
wind
direction
speed
KPH
gust
KPH
rain 1hr
cm
rain 24hr
cm
rain mn
cm
humidity
%
barometer
mb
20260508071333 1 227 4.8 6.4 0.00 0.00 0.00 86 1008.2
20260508070332 1 217 3.2 6.4 0.00 0.00 0.00 86 1008.2
20260508065832 1 210 3.2 6.4 0.00 0.00 0.00 86 1008.2
20260508065331 1 220 3.2 4.8 0.00 0.00 0.00 85 1008.3
20260508064833 1 212 3.2 4.8 0.00 0.00 0.00 85 1008.3
20260508064600 1 220 3.2 4.8 0.00 0.00 0.00 85 1008.4
20260508063831 1 214 3.2 6.4 0.00 0.00 0.00 84 1008.5
20260508063330 1 223 3.2 6.4 0.00 0.00 0.00 84 1008.6
20260508062831 1 210 4.8 4.8 0.00 0.00 0.00 84 1008.5
20260508062331 1 217 3.2 6.4 0.00 0.00 0.00 84 1008.6
20260508061831 1 219 3.2 6.4 0.00 0.00 0.00 83 1008.7
20260508061331 1 220 4.8 6.4 0.00 0.00 0.00 83 1008.7
20260508060830 2 219 4.8 6.4 0.00 0.00 0.00 83 1008.7
20260508060331 2 220 3.2 4.8 0.00 0.00 0.00 83 1008.7
20260508055830 2 217 3.2 6.4 0.00 0.00 0.00 82 1008.8
20260508055329 2 216 3.2 6.4 0.00 0.00 0.00 82 1008.9
20260508055105 2 221 3.2 4.8 0.00 0.00 0.00 83 1009.0
20260508054330 2 214 3.2 6.4 0.00 0.00 0.00 83 1009.0
20260508054054 2 209 3.2 8.0 0.00 0.00 0.00 83 1009.0
20260508053328 2 221 4.8 8.0 0.00 0.00 0.00 83 1009.0
20260508052828 2 241 3.2 6.4 0.00 0.00 0.00 83 1009.0
20260508052328 2 226 4.8 6.4 0.00 0.00 0.00 82 1009.0
20260508051830 2 238 4.8 6.4 0.00 0.00 0.00 82 1009.0
20260508051325 2 226 3.2 6.4 0.00 0.00 0.00 81 1009.0
20260508050825 2 220 4.8 6.4 0.00 0.00 0.00 81 1009.1
20260508050326 2 244 3.2 4.8 0.00 0.00 0.00 80 1009.1
20260508050044 2 233 3.2 6.4 0.00 0.00 0.00 80 1009.2
20260508045322 2 240 3.2 6.4 0.00 0.00 0.00 79 1009.2
20260508045051 2 243 4.8 6.4 0.00 0.00 0.00 78 1009.2
20260508044319 3 237 3.2 6.4 0.00 0.00 0.00 77 1009.1
20260508044050 3 261 3.2 4.8 0.00 0.00 0.00 77 1009.1
20260508043317 3 241 1.6 4.8 0.00 0.00 0.00 76 1009.0
20260508042817 3 258 3.2 4.8 0.00 0.00 0.00 76 1009.1
20260508042314 3 275 0.0 9.7 0.00 0.00 0.00 75 1009.0
20260508041816 4 199 3.2 9.7 0.00 0.00 0.00 74 1009.0
20260508041312 4 175 4.8 9.7 0.00 0.00 0.00 74 1009.0
20260508040810 4 186 6.4 9.7 0.00 0.00 0.00 73 1009.0
20260508040311 4 200 4.8 9.7 0.00 0.00 0.00 72 1009.0
20260508035808 4 199 3.2 8.0 0.00 0.00 0.00 72 1009.0
20260508035535 4 193 3.2 8.0 0.00 0.00 0.00 72 1009.1
20260508034807 4 214 3.2 8.0 0.00 0.00 0.00 72 1009.0
20260508034309 4 216 4.8 8.0 0.00 0.00 0.00 73 1008.9
20260508033805 4 228 1.6 8.0 0.00 0.00 0.00 73 1008.9
20260508033306 4 145 1.6 8.0 0.00 0.00 0.00 74 1009.0
20260508032806 4 171 1.6 9.7 0.00 0.00 0.00 74 1008.9
20260508032306 4 186 3.2 9.7 0.00 0.00 0.00 76 1008.9
20260508031804 4 199 4.8 6.4 0.00 0.00 0.00 78 1008.9
20260508031552 4 199 3.2 6.4 0.00 0.00 0.00 78 1009.0
20260508030842 4 192 3.2 6.4 0.00 0.00 0.00 78 1009.1
20260508030334 4 175 3.2 6.4 0.00 0.00 0.00 77 1009.2
20260508025800 4 193 3.2 6.4 0.00 0.00 0.00 77 1009.4
20260508025525 4 188 3.2 4.8 0.00 0.00 0.00 77 1009.4
20260508024759 4 197 1.6 3.2 0.00 0.00 0.00 77 1009.4
20260508024300 4 314 1.6 3.2 0.00 0.00 0.00 77 1009.5
20260508023758 4 316 1.6 4.8 0.00 0.00 0.00 77 1009.6
20260508023257 4 178 3.2 4.8 0.00 0.00 0.00 77 1009.5
20260508022800 4 152 1.6 3.2 0.00 0.00 0.00 77 1009.6
20260508022256 4 154 0.0 3.2 0.00 0.00 0.00 76 1009.6
20260508021756 4 152 0.0 0.0 0.00 0.00 0.00 76 1009.7
20260508021256 4 152 0.0 0.0 0.00 0.00 0.00 76 1009.7
20260508020756 4 152 0.0 1.6 0.00 0.00 0.00 76 1009.6
20260508020255 4 152 0.0 1.6 0.00 0.00 0.00 76 1009.5
20260508015750 4 144 0.0 4.8 0.00 0.00 0.00 75 1009.4
20260508015246 4 142 1.6 4.8 0.00 0.00 0.00 76 1009.4
20260508014749 4 76 1.6 4.8 0.00 0.00 0.00 76 1009.4
20260508014017 5 116 0.0 3.2 0.00 0.00 0.00 77 1009.4
20260508013244 5 117 0.0 3.2 0.00 0.00 0.00 77 1009.2
20260508012740 5 95 0.0 1.6 0.00 0.00 0.00 77 1009.4
20260508012239 5 95 0.0 1.6 0.00 0.00 0.00 76 1009.2
20260508011734 5 87 0.0 3.2 0.00 0.00 0.00 76 1009.4
20260508011234 5 107 1.6 4.8 0.00 0.00 0.00 76 1009.1
20260508010735 5 80 1.6 4.8 0.00 0.00 0.00 76 1009.1
20260508010235 5 95 1.6 4.8 0.00 0.00 0.00 76 1009.0
20260508005731 5 103 0.0 4.8 0.00 0.00 0.00 76 1009.0
20260508005231 5 85 3.2 6.4 0.00 0.00 0.00 76 1009.0
20260508004732 5 100 3.2 6.4 0.00 0.00 0.00 77 1009.0
20260508004504 5 95 1.6 6.4 0.00 0.00 0.00 77 1008.9
20260508003731 5 131 3.2 8.0 0.00 0.00 0.00 77 1008.9
20260508003231 5 69 1.6 8.0 0.00 0.00 0.00 75 1008.8
20260508002731 5 102 4.8 8.0 0.00 0.00 0.00 74 1008.8
20260508002229 5 72 1.6 8.0 0.00 0.00 0.00 74 1008.8
20260508001729 5 102 3.2 8.0 0.00 0.00 0.00 74 1008.8
20260508001303 5 89 4.8 8.0 0.00 0.00 0.00 73 1008.7
20260508000825 5 102 1.6 6.4 0.00 0.00 0.00 72 1008.7
20260508000227 5 110 3.2 8.0 0.00 0.00 0.00 72 1008.8
20260507235712 5 134 3.2 8.0 0.00 0.00 0.00 72 1008.7
20260507235213 5 99 3.2 8.0 0.00 0.00 0.00 72 1008.6
20260507234941 5 114 6.4 8.0 0.00 0.00 0.00 74 1008.7
20260507234214 5 90 3.2 8.0 0.00 0.00 0.00 75 1008.7
20260507233713 5 73 1.6 8.0 0.00 0.00 0.00 75 1008.8
20260507233442 5 107 4.8 9.7 0.00 0.00 0.00 75 1008.7
20260507232713 5 104 3.2 9.7 0.00 0.00 0.00 76 1008.7
20260507232214 5 118 6.4 9.7 0.00 0.00 0.00 77 1008.6
20260507231713 5 87 3.2 6.4 0.00 0.00 0.00 78 1008.7
20260507231212 5 135 3.2 6.4 0.00 0.00 0.00 79 1008.7
20260507230711 5 96 3.2 6.4 0.00 0.00 0.00 79 1008.7
20260507230215 5 109 3.2 6.4 0.00 0.00 0.00 80 1008.7
20260507225703 5 89 3.2 8.0 0.00 0.00 0.00 81 1008.7
20260507225202 5 120 3.2 8.0 0.00 0.00 0.00 80 1008.7
20260507224703 5 103 4.8 6.4 0.00 0.00 0.00 79 1008.8
20260507224202 5 80 3.2 9.7 0.00 0.00 0.00 77 1008.8
20260507223659 5 79 4.8 9.7 0.00 0.00 0.00 75 1008.7
20260507223158 6 61 6.4 11.3 0.00 0.00 0.00 72 1008.6
20260507222653 6 69 8.0 11.3 0.00 0.00 0.00 70 1008.6
20260507222150 6 71 6.4 11.3 0.00 0.00 0.00 68 1008.6
20260507221651 6 62 6.4 19.3 0.00 0.00 0.00 68 1008.5
20260507221428 6 56 11.3 19.3 0.00 0.00 0.00 67 1008.6
20260507220652 6 55 12.9 17.7 0.00 0.00 0.00 66 1008.5
20260507220155 7 59 3.2 17.7 0.00 0.00 0.00 61 1008.6
20260507215605 8 257 9.7 19.3 0.00 0.00 0.00 54 1008.4
20260507215333 8 247 6.4 19.3 0.00 0.00 0.00 54 1008.4
20260507214605 8 262 8.0 17.7 0.00 0.00 0.00 55 1008.3
20260507214104 7 247 8.0 17.7 0.00 0.00 0.00 55 1008.3
20260507213604 7 231 6.4 11.3 0.00 0.00 0.00 60 1008.4
20260507213108 7 165 3.2 6.4 0.00 0.00 0.00 61 1008.4
20260507212558 7 202 3.2 8.0 0.00 0.00 0.00 64 1008.4
20260507212056 7 147 3.2 8.0 0.00 0.00 0.00 64 1008.3
20260507211556 7 137 0.0 9.7 0.00 0.00 0.00 66 1008.4
20260507211056 6 124 6.4 9.7 0.00 0.00 0.00 65 1008.4
20260507210555 6 97 3.2 9.7 0.00 0.00 0.00 67 1008.6
20260507210329 6 86 6.4 9.7 0.00 0.00 0.00 69 1008.5
20260507205505 6 96 6.4 9.7 0.00 0.00 0.00 69 1008.5
20260507205005 6 116 8.0 11.3 0.00 0.00 0.00 71 1008.6
20260507204505 6 141 6.4 11.3 0.00 0.00 0.00 71 1008.6
20260507204236 6 85 6.4 9.7 0.00 0.00 0.00 72 1008.7
20260507203504 6 85 1.6 11.3 0.00 0.00 0.00 72 1008.7
20260507203006 6 82 9.7 11.3 0.00 0.00 0.00 73 1008.6
20260507202503 6 86 6.4 8.0 0.00 0.00 0.00 72 1008.8
20260507202002 6 75 6.4 8.0 0.00 0.00 0.00 72 1008.8
20260507201503 6 89 3.2 8.0 0.00 0.00 0.00 73 1008.8
20260507201112 6 61 6.4 11.3 0.00 0.00 0.00 72 1008.8
20260507200743 6 80 6.4 11.3 0.00 0.00 0.00 74 1009.0
20260507200723 6 59 6.4 11.3 0.00 0.00 0.00 72 1008.9
20260507194956 6 63 6.4 8.0 0.00 0.00 0.00 73 1008.9
20260507194457 6 111 3.2 8.0 0.00 0.00 0.00 73 1009.0
20260507193955 6 109 4.8 8.0 0.00 0.00 0.00 73 1008.9
20260507193454 6 133 3.2 6.4 0.00 0.00 0.00 73 1009.0
20260507192950 5 24 4.8 6.4 0.00 0.00 0.00 73 1009.1
20260507192451 5 100 3.2 6.4 0.00 0.00 0.00 73 1009.2
20260507191448 5 100 1.6 6.4 0.00 0.00 0.00 75 1009.5
20260507190939 5 75 1.6 3.2 0.00 0.00 0.00 76 1009.6
20260507190441 5 78 1.6 4.8 0.00 0.00 0.00 77 1009.5
20260507185940 5 78 1.6 6.4 0.00 0.00 0.00 76 1009.7
20260507185438 5 37 1.6 6.4 0.00 0.00 0.00 78 1009.7
20260507184940 5 44 3.2 6.4 0.00 0.00 0.00 79 1009.6
20260507184437 5 66 3.2 6.4 0.00 0.00 0.00 78 1009.6
20260507183936 5 93 1.6 6.4 0.00 0.00 0.00 78 1009.6
20260507183436 5 47 1.6 6.4 0.00 0.00 0.00 78 1009.7
20260507183200 5 25 3.2 8.0 0.00 0.00 0.00 78 1009.8
20260507182436 5 62 3.2 9.7 0.00 0.00 0.00 77 1009.7
20260507182208 5 37 3.2 9.7 0.00 0.00 0.00 76 1009.8
20260507181434 5 18 3.2 8.0 0.00 0.00 0.00 76 1009.8
20260507180935 5 49 3.2 6.4 0.00 0.00 0.00 76 1009.9
20260507180700 5 28 3.2 9.7 0.00 0.00 0.00 75 1009.9
20260507175932 5 63 4.8 9.7 0.00 0.00 0.00 74 1009.9
20260507175431 5 34 3.2 8.0 0.00 0.00 0.00 75 1009.9
20260507174931 5 62 1.6 6.4 0.00 0.00 0.00 76 1010.0
20260507174430 5 65 3.2 6.4 0.00 0.00 0.00 75 1009.9
20260507173932 5 353 1.6 6.4 0.00 0.00 0.00 76 1010.0
20260507173431 5 8 4.8 8.0 0.00 0.00 0.00 76 1010.1
20260507172931 5 82 3.2 8.0 0.00 0.00 0.00 77 1009.9
20260507172431 5 343 1.6 8.0 0.00 0.00 0.00 76 1010.1
20260507171934 5 283 0.0 8.0 0.00 0.00 0.00 74 1010.2
20260507171428 5 79 4.8 8.0 0.00 0.00 0.00 72 1010.3
20260507170933 5 330 0.0 4.8 0.00 0.00 0.00 72 1010.3
20260507170427 5 254 1.6 8.0 0.00 0.00 0.00 71 1010.1
20260507165929 6 35 3.2 14.5 0.00 0.00 0.00 70 1010.1
20260507165425 6 8 4.8 14.5 0.00 0.00 0.00 70 1010.2
20260507165152 6 58 1.6 11.3 0.00 0.00 0.00 70 1010.1
20260507164422 6 24 6.4 11.3 0.00 0.00 0.00 69 1010.3
20260507163415 6 5 1.6 9.7 0.00 0.00 0.00 68 1010.2
20260507162912 6 31 4.8 14.5 0.00 0.00 0.00 66 1010.2
20260507162412 6 25 3.2 14.5 0.00 0.00 0.00 65 1010.2
20260507161410 7 2 6.4 20.9 0.00 0.00 0.00 59 1010.3
20260507160909 7 337 3.2 16.1 0.00 0.00 0.00 58 1010.4
20260507160640 7 331 6.4 17.7 0.00 0.00 0.00 58 1010.4
20260507155908 7 334 8.0 17.7 0.00 0.00 0.00 59 1010.4
20260507155411 7 327 1.6 19.3 0.00 0.00 0.00 57 1010.4
20260507155131 7 286 4.8 19.3 0.00 0.00 0.00 58 1010.5
20260507154405 7 262 4.8 17.7 0.00 0.00 0.00 59 1010.4
20260507153902 7 279 6.4 16.1 0.00 0.00 0.00 57 1010.5
20260507153631 7 299 6.4 14.5 0.00 0.00 0.00 59 1010.4
20260507152902 6 314 6.4 14.5 0.00 0.00 0.00 59 1010.5
20260507152401 6 298 6.4 20.9 0.00 0.00 0.00 62 1010.6
20260507151859 6 149 1.6 20.9 0.00 0.00 0.00 64 1010.6
20260507151132 6 25 4.8 6.4 0.00 0.00 0.00 67 1010.7
20260507150400 6 7 1.6 8.0 0.00 0.00 0.00 66 1010.6
20260507145858 6 9 3.2 9.7 0.00 0.00 0.00 68 1010.6
20260507145358 6 25 4.8 9.7 0.00 0.00 0.00 68 1010.6
20260507144858 6 31 4.8 8.0 0.00 0.00 0.00 68 1010.7
20260507144358 6 56 3.2 8.0 0.00 0.00 0.00 66 1010.6
20260507143856 6 355 4.8 8.0 0.00 0.00 0.00 69 1010.6
20260507143357 6 59 0.0 11.3 0.00 0.00 0.00 68 1010.6
20260507142856 6 72 3.2 11.3 0.00 0.00 0.00 64 1010.7
20260507142356 6 344 3.2 11.3 0.00 0.00 0.00 61 1010.6
20260507141855 6 299 6.4 14.5 0.00 0.00 0.00 61 1010.6
20260507141356 6 358 4.8 16.1 0.00 0.00 0.00 62 1010.5
20260507141126 6 298 6.4 16.1 0.00 0.00 0.00 62 1010.6
20260507135855 6 293 8.0 14.5 0.00 0.00 0.00 63 1010.8
20260507135414 6 282 3.2 11.3 0.00 0.00 0.00 63 1010.7
20260507134855 6 279 6.4 11.3 0.00 0.00 0.00 63 1010.7
20260507134356 6 323 1.6 11.3 0.00 0.00 0.00 64 1010.6
20260507134124 6 282 8.0 11.3 0.00 0.00 0.00 64 1010.7
20260507133358 6 289 1.6 16.1 0.00 0.00 0.00 64 1010.7
20260507132854 6 271 6.4 16.1 0.00 0.00 0.00 64 1010.6
20260507132355 6 250 6.4 11.3 0.00 0.00 0.00 65 1010.6
20260507131854 6 272 4.8 16.1 0.00 0.00 0.00 67 1010.6
20260507131355 6 227 8.0 16.1 0.00 0.00 0.00 68 1010.7
20260507131125 6 281 4.8 16.1 0.00 0.00 0.00 70 1010.7
20260507130354 6 265 6.4 11.3 0.00 0.00 0.00 71 1010.8
20260507125853 5 254 4.8 11.3 0.00 0.00 0.00 72 1010.7
20260507125356 5 286 6.4 11.3 0.00 0.00 0.00 73 1010.7
20260507124853 5 212 4.8 11.3 0.00 0.00 0.00 73 1010.7
20260507124353 5 307 8.0 11.3 0.00 0.00 0.00 74 1010.7
20260507123853 5 296 6.4 11.3 0.00 0.00 0.00 75 1010.7
20260507123353 5 264 1.6 8.0 0.00 0.00 0.00 75 1010.7
20260507122852 5 254 6.4 8.0 0.00 0.00 0.00 77 1010.7
20260507122353 5 262 3.2 8.0 0.00 0.00 0.00 78 1010.7
20260507122121 4 281 3.2 8.0 0.00 0.00 0.00 79 1010.6
20260507121352 3 275 4.8 8.0 0.00 0.00 0.00 80 1010.6
20260507120852 3 254 4.8 8.0 0.00 0.00 0.00 82 1010.6
20260507120352 3 247 4.8 8.0 0.00 0.00 0.00 82 1010.7
20260507115852 2 221 3.2 8.0 0.00 0.00 0.00 83 1010.6
20260507115352 2 261 3.2 8.0 0.00 0.00 0.00 84 1010.6
20260507114852 1 243 3.2 8.0 0.00 0.00 0.00 84 1010.5
20260507114622 1 268 4.8 8.0 0.00 0.00 0.00 84 1010.5
20260507114118 1 244 4.8 6.4 0.00 0.00 0.00 85 1010.5
20260507113351 1 254 4.8 6.4 0.00 0.00 0.00 86 1010.4
20260507112624 0 241 3.2 6.4 0.00 0.00 0.00 87 1010.3
20260507111850 0 259 3.2 6.4 0.00 0.00 0.00 87 1010.4
20260507111351 0 247 3.2 6.4 0.00 0.00 0.00 87 1010.3
20260507110850 0 254 3.2 6.4 0.00 0.00 0.00 87 1010.3
20260507110350 0 269 3.2 8.0 0.00 0.00 0.00 87 1010.3
20260507105851 0 268 3.2 8.0 0.00 0.00 0.00 87 1010.3
20260507105351 0 230 4.8 8.0 0.00 0.00 0.00 88 1010.2
20260507104851 0 228 3.2 6.4 0.00 0.00 0.00 87 1010.2
20260507104347 0 244 3.2 6.4 0.00 0.00 0.00 87 1010.2
20260507103850 0 244 3.2 6.4 0.00 0.00 0.00 87 1010.1
20260507103346 0 245 3.2 4.8 0.00 0.00 0.00 87 1010.1
20260507102848 -1 247 3.2 4.8 0.00 0.00 0.00 87 1010.1
20260507102347 -1 252 3.2 4.8 0.00 0.00 0.00 87 1010.1
20260507102130 -1 258 3.2 4.8 0.00 0.00 0.00 87 1010.0
20260507101347 -1 255 3.2 4.8 0.00 0.00 0.00 86 1010.2
20260507100847 -1 255 1.6 4.8 0.00 0.00 0.00 86 1010.1
20260507100345 -1 245 3.2 9.7 0.00 0.00 0.00 86 1010.2
20260507095844 -1 243 3.2 9.7 0.00 0.00 0.00 86 1010.2
20260507095613 -1 241 4.8 9.7 0.00 0.00 0.00 86 1010.2
20260507095123 -1 237 4.8 8.0 0.00 0.00 0.00 86 1010.1
20260507094607 -1 237 3.2 4.8 0.00 0.00 0.00 86 1010.1
20260507094106 -1 234 3.2 4.8 0.00 0.00 0.00 85 1010.1
20260507093337 -1 247 3.2 4.8 0.00 0.00 0.00 85 1010.1
20260507092840 -1 252 3.2 4.8 0.00 0.00 0.00 85 1010.2
20260507092337 0 252 1.6 4.8 0.00 0.00 0.00 85 1010.2
20260507091837 0 245 3.2 4.8 0.00 0.00 0.00 85 1010.3
20260507091333 0 237 3.2 4.8 0.00 0.00 0.00 84 1010.3
20260507090832 0 279 1.6 4.8 0.00 0.00 0.00 85 1010.2
20260507090331 0 275 3.2 4.8 0.00 0.00 0.00 84 1010.2
20260507085832 0 274 3.2 4.8 0.00 0.00 0.00 84 1010.3
20260507085331 0 255 3.2 4.8 0.00 0.00 0.00 84 1010.3
20260507084831 0 247 3.2 8.0 0.00 0.00 0.00 84 1010.3
20260507084600 0 251 3.2 8.0 0.00 0.00 0.00 84 1010.3
20260507084102 0 241 3.2 6.4 0.00 0.00 0.00 83 1010.3
20260507083331 0 244 3.2 4.8 0.00 0.00 0.00 83 1010.4
20260507082831 0 251 3.2 6.4 0.00 0.00 0.00 83 1010.4
20260507082331 0 248 4.8 6.4 0.00 0.00 0.00 83 1010.4
20260507081831 0 245 3.2 6.4 0.00 0.00 0.00 82 1010.4
20260507081331 0 250 3.2 6.4 0.00 0.00 0.00 82 1010.4
20260507081102 0 252 4.8 6.4 0.00 0.00 0.00 82 1010.4
20260507080331 0 257 3.2 4.8 0.00 0.00 0.00 81 1010.4
20260507075830 0 251 3.2 6.4 0.00 0.00 0.00 81 1010.5
20260507075556 0 261 3.2 6.4 0.00 0.00 0.00 81 1010.5
20260507074832 0 240 3.2 6.4 0.00 0.00 0.00 81 1010.6
20260507074557 0 238 3.2 6.4 0.00 0.00 0.00 80 1010.6
20260507073831 0 247 3.2 6.4 0.00 0.00 0.00 80 1010.6
20260507073331 0 245 3.2 6.4 0.00 0.00 0.00 79 1010.6
20260507072831 0 244 3.2 4.8 0.00 0.00 0.00 79 1010.6
20260507072334 0 268 3.2 4.8 0.00 0.00 0.00 79 1010.6
20260507071829 0 268 3.2 4.8 0.00 0.00 0.00 78 1010.5